Thayer, KS

6:13 AM CST on December 06, 2016 (GMT -0600)
Tri-City

Weather History for KPPF - September, 2013

Change the Weather History Date:

Monday, September 30, 2013

  Actual Average Record
Temperature  
Mean Temperature 62 °F -  
Max Temperature 80 °F 77 °F 96 °F (1979)
Min Temperature 46 °F 52 °F 28 °F (1984)
Degree Days  
Heating Degree Days 2    
Growing Degree Days 12 (Base 50)    
Moisture  
Dew Point 53 °F    
Average Humidity 75    
Maximum Humidity 93    
Minimum Humidity 42    
Precipitation  
Precipitation 0.00 in - - ()
Sea Level Pressure  
Sea Level Pressure 29.89 in    
Wind  
Wind Speed 2 mph (SSE)    
Max Wind Speed 9 mph    
Max Gust Speed 16 mph    
Visibility 10 miles    
Events      
Averages and records for this station are not official NWS values.
T = Trace of Precipitation, MM = Missing Value Source: NWS Daily Summary

Daily Weather History Graph

Daily Weather History Graph

Search for Another Location

Airport or City:

Trip Planner

Search our weather history database for the weather conditions in past years. The results will help you decide how hot, cold, wet, or windy it might be!

Date:

Astronomy

Sep. 30, 2013 Rise Set
Actual Time 7:16 AM CDT 7:06 PM CDT
Civil Twilight 6:50 AM CDT 7:32 PM CDT
Nautical Twilight 6:20 AM CDT 8:02 PM CDT
Astronomical Twilight 5:50 AM CDT 8:32 PM CDT
Moon 2:59 AM CDT (9/30) 4:33 PM CDT (9/30)
Length of Visible Light 12h 41m
Length of Day
11h 49m
Waning Crescent, 19% of the Moon is Illuminated
Sep 30
Waning Crescent
Oct 4
New
Oct 11
First Quarter
Oct 18
Full
Oct 26
Last Quarter

Hourly Weather History & Observations

Time (CDT) Temp. Dew Point Humidity Pressure Visibility Wind Dir Wind Speed Gust Speed Precip Events Conditions
12:52 AM 51.1 °F 48.9 °F 92% 29.94 in 10.0 mi Calm Calm - N/A   Clear
1:52 AM 50.0 °F 48.0 °F 93% 29.93 in 9.0 mi Calm Calm - N/A   Clear
2:52 AM 48.9 °F 46.9 °F 93% 29.92 in 10.0 mi Calm Calm - N/A   Clear
3:52 AM 48.9 °F 46.9 °F 93% 29.92 in 10.0 mi Calm Calm - N/A   Clear
4:52 AM 50.0 °F 48.0 °F 93% 29.90 in 10.0 mi East 4.6 mph - N/A   Clear
5:52 AM 48.0 °F 46.0 °F 93% 29.92 in 10.0 mi Calm Calm - N/A   Clear
6:52 AM 46.9 °F 45.0 °F 93% 29.92 in 9.0 mi Calm Calm - N/A   Clear
7:52 AM 50.0 °F 48.0 °F 93% 29.92 in 8.0 mi Calm Calm - N/A   Clear
8:52 AM 59.0 °F 55.9 °F 90% 29.92 in 10.0 mi Calm Calm - N/A   Clear
9:52 AM 64.9 °F 59.0 °F 81% 29.92 in 10.0 mi Calm Calm - N/A   Clear
10:52 AM 71.1 °F 57.9 °F 63% 29.92 in 10.0 mi SSW 5.8 mph - N/A   Clear
11:52 AM 73.9 °F 55.9 °F 53% 29.92 in 10.0 mi South 5.8 mph - N/A   Clear
12:52 PM 75.0 °F 55.9 °F 51% 29.90 in 10.0 mi South 8.1 mph 16.1 mph N/A   Clear
1:52 PM 77.0 °F 55.9 °F 48% 29.87 in 10.0 mi South 9.2 mph - N/A   Clear
2:52 PM 78.1 °F 54.0 °F 43% 29.85 in 10.0 mi South 6.9 mph - N/A   Clear
3:52 PM 79.0 °F 54.0 °F 42% 29.84 in 10.0 mi South 5.8 mph - N/A   Clear
4:52 PM 79.0 °F 55.0 °F 44% 29.84 in 10.0 mi South 5.8 mph - N/A   Clear
5:52 PM 77.0 °F 55.0 °F 47% 29.84 in 10.0 mi SSE 5.8 mph - N/A   Clear
6:52 PM 68.0 °F 59.0 °F 73% 29.85 in 10.0 mi Calm Calm - N/A   Clear
7:52 PM 62.1 °F 57.9 °F 86% 29.86 in 10.0 mi Calm Calm - N/A   Clear
8:52 PM 60.1 °F 57.0 °F 90% 29.86 in 10.0 mi Calm Calm - N/A   Clear
9:52 PM 60.1 °F 57.0 °F 90% 29.86 in 10.0 mi Calm Calm - N/A   Clear
10:52 PM 61.0 °F 57.0 °F 87% 29.86 in 10.0 mi SE 3.5 mph - N/A   Clear
11:52 PM 64.0 °F 57.0 °F 78% 29.86 in 10.0 mi Calm Calm - N/A   Clear